User: anonymous   Login
Location: EverStaR Observatory
(38.9036°N, 94.8303°W)
Time: 04:48:34
(UTC-05:00)
Language:

Hubble Space Telescope - Orbit

View from above orbital plane
View from above orbital plane
View from above satellite
View from above satellite

Ground track
Ground track

The orbit data is extracted from the following two-line orbital elements,

1 20580U 90037B   19113.54630603 +.00000447 +00000-0 +16295-4 0  9998
2 20580 028.4687 223.1926 0002503 239.0763 232.5545 15.09211497392310
Epoch (UTC): 23 April 2019 13:06:40
Eccentricity: 0.0002503
inclination: 28.4687°
perigee height: 537 km
apogee height: 540 km
right ascension of ascending node: 223.1926°
argument of perigee: 239.0763°
revolutions per day: 15.09211497
mean anomaly at epoch: 232.5545°
orbit number at epoch: 39231

The dashed part of the orbit path shows where the satellite is in the earth's shadow,  

DLR